Location: Potomac
(46.8816°N, 113.5795°W)
Time: 11:17:31
(UTC+00:00)

AO-91 - Pass Details

Date: 06 July 2022
Orbit: 450 x 797 km, 97.7° (Epoch: 11 August)

Event Time Altitude Azimuth Distance (km) Brightness Sun altitude
Rises 07:18:38 0° 360° (N) 2,489 ? -20.3°
Reaches altitude 10° 07:20:59 10° 344° (NNW) 1,596 ? -20.3°
Maximum altitude 07:23:37 21° 293° (WNW) 1,061 ? -20.4°
Enters shadow 07:24:51 18° 263° (W) 1,200 ? -20.4°
